Regional Weather Roundup
Issued by NWS

Home | Current Version | Previous Version | Graphics & Text | Print | Product List | Glossary On
Versions: 1 2 3 4 5 6 7 8 9 10 11 12 13 14 15 16 17 18 19 20 21 22 23 24 25 26 27 28 29 30 31 32 33 34 35 36 37 38 39 40 41 42 43 44 45 46 47 48 49 50
929
ASUS45 KBOU 021307
RWRCO

WEATHER ROUNDUP FOR COLORADO
NATIONAL WEATHER SERVICE DENVER/BOULDER CO
600 AM MST FRI DEC 02 2016

NOTE: "FAIR" INDICATES FEW OR NO CLOUDS BELOW 12000 FEET WITH NO
SIGNIFICANT WEATHER AND/OR OBSTRUCTIONS TO VISIBILITY.

COZ001>005-013-030-031-021400-
...NORTHWEST COLORADO...

CITY           SKY/WX    TMP DP  RH WIND       PRES   REMARKS
CRAIG          FAIR       9   5  84 N3        30.10R
HAYDEN         MOCLDY    16  10  79 NE3       30.06S
MEEKER         CLOUDY    16  13  88 CALM      30.05S
MOUNT WERNER   NOT AVBL
STEAMBOAT SPGS CLOUDY    14   9  82 CALM      30.06R
WALDEN           N/A     12   9  85 CALM      30.04S
$$

COZ006>008-011-021400-
...WEST CENTRAL VALLEYS...

CITY           SKY/WX    TMP DP  RH WIND       PRES   REMARKS
GRAND JUNCTION FAIR      28  22  78 SE5       30.04R WCI  23
MONTROSE       MOCLDY    20  13  74 SE9       30.06R WCI   9
EAGLE          FLURRIES  21  18  88 CALM      30.07S
RIFLE          MOCLDY    22  19  89 S3        30.05S
DELTA          NOT AVBL
NUCLA          CLOUDY    23  14  68 E3        30.04R
$$

COZ017>023-064>068-021400-
...SOUTHWEST COLORADO...

CITY           SKY/WX    TMP DP  RH WIND       PRES   REMARKS
DURANGO        CLOUDY    20  15  81 E3        29.96R
CORTEZ         MOCLDY    19  15  84 NE5       29.98R WCI  12
PAGOSA SPRINGS FAIR      14  12  92 CALM      29.98R
TELLURIDE      FAIR      14  10  85 SE6       29.93S WCI   5
WOLF CREEK PAS CLOUDY    10   7  85 S8        29.97R WCI  -1
$$

COZ009-010-012-014-032>034-037-058>063-021400-
...CENTRAL COLORADO...

CITY           SKY/WX    TMP DP  RH WIND       PRES   REMARKS
ASPEN          FAIR      11   7  84 S5        29.98S WCI   3
BUENA VISTA    NOT AVBL
COPPER MTN     CLOUDY    14   1  57 MISG      29.92R
BERTHOUD PASS    N/A      3  -9  55 SE5       29.92R WCI  -6
COTTONWOOD PAS FAIR      19  10  68 CALM      29.96R
GUNNISON       FAIR       5   2  87 SE3       30.03R
KREMMLING      LGT SNOW  19  16  86 CALM      30.06S
LEADVILLE      FAIR       5   1  83 CALM      29.94R
MONARCH PASS   CLOUDY     9   5  85 E3        30.03R
SALIDA         FAIR      11   4  73 CALM      30.11R
SUNLIGHT       LGT SNOW N/A N/A N/A NE6       29.96S
WILKERSON PASS CLOUDY    12   9  85 CALM      29.97S
$$

COZ069>075-021400-
...SAN LUIS VALLEY/SANGRE DE CRISTO MOUNTAINS...

CITY           SKY/WX    TMP DP  RH WIND       PRES   REMARKS
ALAMOSA        CLOUDY     8   4  83 S5        30.02R WCI   0
LA VETA PASS   CLOUDY    16   9  73 W3        29.99R
SAGUACHE       FAIR      12   7  79 N9        30.00S WCI   0
$$

COZ035-036-038>040-021400-
...NORTHERN COLORADO FRONT RANGE...

CITY           SKY/WX    TMP DP  RH WIND       PRES   REMARKS
DENVER INTL AP CLOUDY    22  11  62 SW5       30.10R WCI  16
DMNS CITY PARK   N/A     22  11  61 E7        30.11R WCI  14
AURORA         MOCLDY    21  10  63 SW5       30.10R WCI  14
FRONT RANGE AP NOT AVBL
ERIE MUNI ARPT FAIR      16  12  83 CALM      30.12R
BOULDER MUN AP FAIR      27  10  50 SW5       30.11R WCI  21
CENTENNIAL     MOCLDY    16   9  74 CALM      30.08R
BROOMFIELD     PTCLDY    27  12  54 NW5       30.10R WCI  21
FORT COLLINS   FAIR      23  12  63 CALM      30.12R
LONGMONT       FAIR      22  12  65 CALM      30.14R
$$

COZ041-046-047-076>085-087-088-021400-
...PIKES PEAK/PALMER DIVIDE AND SOUTHERN FOOTHILLS...

CITY           SKY/WX    TMP DP  RH WIND       PRES   REMARKS
COLO. SPRINGS  FAIR      19   5  54 N9        30.06R WCI   8
A. F. ACADEMY  FAIR      15   6  67 N9        30.05R WCI   3
SCHRIEVER AFB  NOT AVBL
ELLICOTT       FAIR     N/A N/A N/A E8          N/A
FALCON         FAIR      20   6  54 N10       30.06R WCI   9
FORT CARSON    FAIR      20   5  53 N8        30.05R WCI  10
LIMON          FAIR      10   6  84 W3        30.10R
MONUMENT HILL  CLOUDY    14   5  67 CALM      30.07R
TRINIDAD       CLOUDY    21   9  59 NW7       30.08R WCI  12
$$

COZ042>045-048>051-090-091-021400-
...NORTHEAST COLORADO...

CITY           SKY/WX    TMP DP  RH WIND       PRES   REMARKS
GREELEY ARPT   CLOUDY    15   9  76 N3        30.14R
AKRON          FAIR      23  15  71 NW5       30.11R WCI  17
BURLINGTON     FAIR      14   6  70 W8        30.13R WCI   3
WRAY           NOT AVBL
STERLING       CLOUDY    18  14  86 S3        30.13R
HOLYOKE        FAIR      25  19  80 N6        30.14S WCI  18
FORT MORGAN    CLOUDY    20  15  81 W5        30.14R WCI  13
$$

COZ086-089-092>099-021400-
...SOUTHEAST COLORADO...

CITY           SKY/WX    TMP DP  RH WIND       PRES   REMARKS
PUEBLO         FAIR      15   8  73 SW5       30.10R WCI   8
LA JUNTA       FAIR      18  11  74 SW7       30.12R WCI   9
LAMAR          FAIR      11   6  81 SW5       30.11R WCI   3
SPRINGFIELD      N/A     16   8  71 CALM      30.11R
$$




USA.gov is the U.S. government's official web portal to all federal, state and local government web resources and services.